Location: Lane
(33.5226°N, 79.8788°W)
Time: 20:43:31
(UTC+00:00)

Explorer 11/Cluster Stage 4 - Pass Details

Date: 09 October 2022
Orbit: 466 x 1247 km, 28.8° (Epoch: 01 December)

Event Time Altitude Azimuth Distance (km) Brightness Sun altitude
Rises 14:11:52 0° 244° (WSW) 3,882 9.9 32.5°
Reaches altitude 10° 14:14:36 10° 239° (WSW) 3,014 9.4 32.9°
Maximum altitude 14:21:59 51° 166° (SSE) 1,495 9.2 34.2°
Drops below altitude 10° 14:29:52 10° 93° (E) 3,208 10.6 35.5°
Sets 14:32:51 0° 89° (E) 4,150 10.9 35.9°
